Flag for France Weather past 2 weeks in Bastia, Corsica, France

73 °F

Partly sunny.

Feels Like: 76 °F
Forecast: 64 / 72 °F
Wind: 5 mph from North

Location: Bastia Airport

Current Time: Oct 4, 2015 at 5:46:35 PM

Latest Report: Oct 4, 2015 at 5:00 PM

Visibility: N/A

Pressure: 30.07 "Hg

Humidity: 65%

Dew point: 61 °F

Location of BastiaLocation

Historic Weather in Bastia — Graph


Bastia temperature yesterday

Maximum temperature yesterday: 70 °F (at 11:00 AM)
Minimum temperature yesterday: 57 °F (at 6:30 AM)
Average temperature yesterday: 64 °F

Past Weeks' High & Low Weather Summary

High79 °F (Sep 20, 2:30 PM)100% (Oct 1, 1:00 AM)30.21 "Hg (Oct 1, 1:00 AM)
Low57 °F (Sep 24, 12:00 AM)29% (Sep 23, 2:00 PM)29.68 "Hg (Sep 23, 12:00 PM)
Average67 °F66%30.00 "Hg
* Reported Sep 19 4:00 PM — Oct 4 4:30 PM, Bastia, Weather by CustomWeather, © 2015

Note: Actual official high and low records may vary slightly from our data, if they occured in-between our weather recording intervals... More about our weather records


Bastia weather history for previous 24 hours

Time TempWeatherWind HumidityBarometerVisibility
4:30 PM
Sun, Oct 4
73 °FPartly sunny.6 mph65%30.07 "HgN/A
4:00 PM73 °FPartly sunny.No wind69%30.07 "HgN/A
3:48 PM75 °FPassing clouds.3 mph69%30.07 "HgN/A
3:00 PM73 °FPassing clouds.5 mph69%30.07 "HgN/A
2:30 PM73 °FPassing clouds.6 mph74%30.09 "HgN/A
1:54 PM73 °FPassing clouds.6 mph74%30.09 "HgN/A
1:30 PM73 °FScattered clouds.7 mph78%30.09 "HgN/A
1:00 PM73 °FScattered clouds.8 mph78%30.09 "HgN/A
12:00 PM75 °FPassing clouds.8 mph69%30.09 "HgN/A
11:30 AM77 °FPassing clouds.3 mph57%30.09 "HgN/A
11:00 AM73 °FScattered clouds.6 mph65%30.09 "HgN/A
10:30 AM73 °FScattered clouds.5 mph69%30.09 "HgN/A
10:00 AM73 °FScattered clouds.6 mph65%30.09 "HgN/A
9:30 AM72 °FScattered clouds.5 mph65%30.09 "HgN/A
9:00 AM68 °FScattered clouds.6 mph69%30.09 "HgN/A
8:30 AM66 °FScattered clouds.9 mph73%30.09 "HgN/A
8:00 AM64 °FPassing clouds.6 mph78%30.09 "HgN/A
7:30 AM63 °FPassing clouds.5 mph88%30.09 "HgN/A
7:00 AM63 °FPassing clouds.3 mph88%30.09 "HgN/A
6:30 AM63 °FPassing clouds.3 mph88%30.09 "HgN/A
6:00 AM61 °FPassing clouds.3 mph94%30.09 "HgN/A
5:30 AM63 °FPassing clouds.3 mph88%30.09 "HgN/A
5:00 AM63 °FPassing clouds.5 mph88%30.09 "HgN/A
4:30 AM61 °FPassing clouds.3 mph94%30.09 "HgN/A
4:00 AM63 °FOvercast.3 mph88%30.09 "HgN/A
3:30 AM63 °FClear.3 mph88%30.09 "Hg10 mi
3:00 AM63 °FClear.2 mph88%30.12 "Hg10 mi
2:30 AM61 °FClear.2 mph94%30.12 "Hg10 mi
2:00 AM63 °FMostly cloudy.3 mph88%30.12 "HgN/A
1:30 AM63 °FMostly cloudy.2 mph88%30.12 "HgN/A
1:00 AM61 °FPartly cloudy.3 mph94%30.12 "HgN/A
12:30 AM61 °FPartly cloudy.3 mph94%30.15 "HgN/A
11:30 PM
Sat, Oct 3
61 °FPartly cloudy.3 mph94%30.15 "HgN/A
11:00 PM61 °FPartly cloudy.3 mph94%30.15 "HgN/A
10:30 PM63 °FPassing clouds.1 mph88%30.12 "HgN/A
10:00 PM63 °FPassing clouds.5 mph88%30.15 "HgN/A
9:30 PM63 °FPassing clouds.3 mph88%30.15 "HgN/A
9:00 PM63 °FPassing clouds.3 mph88%30.15 "HgN/A
8:30 PM64 °FPassing clouds.5 mph88%30.12 "HgN/A
8:00 PM64 °FPassing clouds.5 mph88%30.12 "HgN/A
7:30 PM66 °FScattered clouds.6 mph78%30.12 "HgN/A
7:00 PM66 °FScattered clouds.9 mph83%30.12 "HgN/A
6:30 PM66 °FScattered clouds.12 mph83%30.12 "HgN/A
6:00 PM68 °FScattered clouds.10 mph78%30.15 "HgN/A
5:30 PM68 °FScattered clouds.9 mph78%30.15 "HgN/A
5:00 PM68 °FBroken clouds.13 mph78%30.15 "HgN/A
Weather by CustomWeather, © 2015

See weather overviewHow to use our weather pages